Location: Newark
(34.6283°N, 36.0776°E)
Time: 16:23:28
(UTC+00:00)

Explorer 11/Cluster Stage 4 - Visible Passes

Search period start: 23 September 2019 00:00
Search period end: 03 October 2019 00:00
Orbit: 467 x 1260 km, 28.8° (Epoch: 23 September)

Date Brightness Start Highest point End Pass type
(mag) Time Alt. Az. Time Alt. Az. Time Alt. Az.
23 Sep 8.0 17:13:04 10° SW 17:19:12 28° SSE 17:19:34 28° SSE visible
23 Sep 9.5 19:01:24 10° WSW 19:01:44 11° WSW 19:01:44 11° WSW visible
24 Sep 7.9 17:01:49 10° SW 17:08:26 32° SSE 17:09:50 29° SE visible
24 Sep 9.2 18:50:24 10° WSW 18:52:00 17° WSW 18:52:00 17° WSW visible
25 Sep 7.9 16:50:38 10° SW 16:57:38 36° SSE 17:00:02 28° SE visible
25 Sep 8.8 18:39:24 10° WSW 18:42:12 23° WSW 18:42:12 23° WSW visible
26 Sep 7.9 16:39:31 10° SW 16:46:49 40° SSE 16:50:10 26° ESE visible
26 Sep 8.5 18:28:26 10° WSW 18:32:19 30° WSW 18:32:19 30° WSW visible
27 Sep 7.9 16:28:26 10° SW 16:35:59 43° SSE 16:40:14 22° ESE visible
27 Sep 8.2 18:17:28 10° WSW 18:22:23 38° SW 18:22:23 38° SW visible
28 Sep 7.9 16:17:24 10° WSW 16:25:08 47° SSE 16:30:14 19° ESE visible
28 Sep 7.9 18:06:31 10° WSW 18:12:23 45° SW 18:12:23 45° SW visible
29 Sep 7.9 16:06:24 10° WSW 16:14:17 50° S 16:20:12 16° E visible
29 Sep 7.7 17:55:35 10° W 18:02:21 51° SSW 18:02:21 51° SSW visible
30 Sep 7.9 15:55:27 10° WSW 16:03:25 52° S 16:10:08 13° E visible
30 Sep 7.6 17:44:40 10° W 17:52:16 54° SSW 17:52:16 54° SSW visible
01 Oct 7.9 15:44:32 10° WSW 15:52:32 55° S 16:00:03 10° E visible
01 Oct 7.6 17:33:46 10° W 17:41:39 53° S 17:42:11 52° S visible
01 Oct 9.7 19:23:42 10° W 19:24:19 12° W 19:24:19 12° W visible
02 Oct 7.9 15:33:39 10° WSW 15:41:40 56° S 15:49:24 10° E visible
02 Oct 7.6 17:22:52 10° W 17:30:47 52° S 17:32:05 48° SSE visible
02 Oct 9.6 19:12:53 10° W 19:14:13 15° WSW 19:14:13 15° WSW visible
